Total_Precipitation_Accumulation
0.61 0.43 0.35 0.34 0.33 0.32 0.34 0.44 0.78 1.18 1.57 1.88 2.10 2.15 2.04 1.75 1.50 1.50 1.59 1.63 1.58 1.44 1.31 1.14 1.04 1.03 0.99 0.97 0.91 0.88 0.93 1.05 1.13 1.05 1.00 1.06 1.12 1.00 0.90 0.85 0.80 0.80 0.74 0.69
0.50 0.41 0.39 0.48 0.46 0.49 0.52 0.58 0.75 1.12 1.65 1.84 1.83 1.62 1.62 1.60 1.45 1.57 1.75 1.83 1.78 1.61 1.45 1.25 1.10 1.03 1.00 0.97 0.86 0.80 0.86 1.01 1.07 1.05 1.03 1.05 1.11 1.05 0.97 0.90 0.87 0.83 0.77 0.72
0.69 0.51 0.64 1.03 0.82 0.75 0.75 0.76 0.88 1.25 1.43 1.35 1.39 1.39 1.44 1.49 1.53 1.73 1.88 1.87 1.76 1.67 1.51 1.32 1.25 1.12 1.08 1.03 0.90 0.88 0.89 0.92 1.00 1.05 1.09 1.11 1.09 1.05 1.01 0.99 0.98 0.88 0.78 0.75
0.68 0.81 1.37 1.32 0.81 0.75 0.79 0.80 0.76 0.87 0.91 1.00 1.12 1.25 1.43 1.52 1.66 1.86 1.97 2.02 1.95 1.74 1.56 1.35 1.20 1.10 1.04 0.99 0.92 0.95 0.93 0.90 0.88 0.91 0.94 0.93 0.99 1.03 1.01 0.98 0.92 0.87 0.79 0.74
0.89 1.18 1.41 1.23 0.78 0.73 0.90 1.04 0.77 0.70 0.70 0.81 0.90 1.07 1.53 1.66 1.73 1.87 1.94 1.91 1.86 1.69 1.58 1.44 1.25 1.13 1.05 1.00 0.96 0.91 0.87 0.83 0.76 0.72 0.75 0.76 0.84 0.95 1.02 0.98 0.88 0.80 0.74 0.71
1.01 1.41 1.84 1.55 0.71 0.46 0.74 1.37 0.91 0.63 0.55 0.67 0.90 1.25 1.47 1.45 1.49 1.50 1.49 1.43 1.41 1.36 1.32 1.27 1.13 1.04 1.02 1.01 0.93 0.85 0.77 0.70 0.65 0.64 0.68 0.69 0.75 0.86 0.92 0.94 0.83 0.69 0.62 0.63
1.08 1.43 1.66 0.89 0.48 0.52 1.23 1.56 1.05 0.79 0.69 0.76 1.00 1.12 1.02 0.99 1.12 1.18 1.22 1.19 1.13 1.12 1.14 1.11 1.01 0.99 1.01 0.98 0.90 0.73 0.62 0.60 0.61 0.66 0.69 0.67 0.75 0.83 0.81 0.75 0.75 0.68 0.62 0.61
1.23 1.60 1.72 0.69 0.51 0.93 1.11 0.83 0.79 0.78 0.79 0.82 0.81 0.73 0.71 0.76 0.93 1.14 1.27 1.24 1.14 1.09 1.04 0.96 0.92 0.99 1.02 0.93 0.75 0.62 0.60 0.63 0.67 0.66 0.62 0.61 0.73 0.80 0.73 0.71 0.70 0.68 0.66 0.61
1.26 1.44 1.06 0.56 0.56 0.58 0.58 0.57 0.58 0.58 0.61 0.65 0.72 0.71 0.68 0.77 0.91 1.08 1.17 1.18 1.13 1.03 0.94 0.83 0.78 0.83 0.87 0.74 0.56 0.52 0.58 0.66 0.68 0.63 0.70 0.70 0.67 0.67 0.67 0.69 0.61 0.56 0.56 0.53
0.98 0.96 0.69 0.52 0.45 0.41 0.44 0.48 0.50 0.56 0.58 0.65 0.82 0.84 0.79 0.83 0.95 1.07 1.09 0.99 0.90 0.85 0.80 0.71 0.63 0.60 0.60 0.50 0.48 0.54 0.62 0.64 0.62 0.65 0.76 0.75 0.65 0.56 0.54 0.53 0.49 0.46 0.47 0.46
1.23 1.09 0.82 0.57 0.45 0.46 0.45 0.50 0.55 0.64 0.65 0.68 0.75 0.80 0.82 0.83 0.85 0.88 0.87 0.80 0.72 0.70 0.66 0.55 0.50 0.47 0.42 0.39 0.43 0.54 0.57 0.60 0.60 0.62 0.66 0.71 0.61 0.48 0.44 0.38 0.31 0.31 0.33 0.34
1.54 1.21 1.08 0.82 0.62 0.63 0.63 0.63 0.63 0.60 0.57 0.59 0.58 0.59 0.65 0.68 0.69 0.69 0.71 0.67 0.64 0.59 0.55 0.48 0.46 0.43 0.40 0.36 0.39 0.50 0.54 0.52 0.47 0.50 0.53 0.55 0.55 0.48 0.32 0.19 0.15 0.14 0.14 0.19
1.21 0.97 0.88 0.82 0.73 0.72 0.66 0.52 0.46 0.44 0.40 0.44 0.48 0.48 0.49 0.49 0.51 0.54 0.57 0.55 0.52 0.47 0.42 0.43 0.42 0.37 0.37 0.35 0.35 0.41 0.49 0.49 0.41 0.40 0.44 0.46 0.45 0.50 0.45 0.27 0.13 0.10 0.09 0.12
0.80 0.78 0.75 0.60 0.46 0.38 0.31 0.28 0.28 0.30 0.29 0.28 0.31 0.33 0.35 0.35 0.39 0.42 0.48 0.47 0.41 0.36 0.33 0.35 0.35 0.33 0.31 0.31 0.33 0.35 0.36 0.34 0.36 0.41 0.41 0.39 0.35 0.35 0.38 0.44 0.39 0.28 0.17 0.14
0.50 0.51 0.44 0.30 0.22 0.20 0.20 0.20 0.26 0.28 0.26 0.27 0.25 0.26 0.26 0.29 0.33 0.35 0.39 0.39 0.35 0.32 0.31 0.31 0.31 0.29 0.25 0.24 0.28 0.33 0.34 0.32 0.33 0.35 0.34 0.29 0.26 0.25 0.29 0.35 0.37 0.36 0.32 0.24
0.31 0.29 0.25 0.21 0.20 0.19 0.20 0.21 0.25 0.25 0.23 0.24 0.24 0.24 0.22 0.23 0.23 0.28 0.34 0.33 0.33 0.35 0.35 0.32 0.30 0.25 0.20 0.20 0.22 0.26 0.24 0.23 0.26 0.29 0.26 0.23 0.23 0.24 0.25 0.30 0.32 0.33 0.35 0.32
0.29 0.26 0.23 0.22 0.20 0.20 0.20 0.20 0.21 0.19 0.19 0.19 0.18 0.17 0.16 0.17 0.21 0.27 0.31 0.29 0.29 0.31 0.31 0.31 0.25 0.19 0.17 0.16 0.18 0.19 0.19 0.20 0.21 0.20 0.19 0.19 0.20 0.19 0.18 0.23 0.28 0.32 0.28 0.27
0.28 0.26 0.24 0.25 0.23 0.22 0.19 0.17 0.18 0.16 0.14 0.12 0.12 0.13 0.14 0.17 0.20 0.24 0.25 0.24 0.23 0.26 0.28 0.26 0.20 0.17 0.16 0.16 0.16 0.15 0.17 0.19 0.19 0.17 0.16 0.16 0.16 0.16 0.16 0.20 0.24 0.29 0.29 0.29
0.26 0.24 0.19 0.19 0.19 0.18 0.16 0.15 0.15 0.14 0.12 0.11 0.12 0.13 0.14 0.16 0.18 0.19 0.21 0.23 0.27 0.29 0.26 0.21 0.17 0.17 0.17 0.16 0.15 0.16 0.16 0.18 0.18 0.16 0.14 0.13 0.14 0.16 0.16 0.19 0.22 0.26 0.29 0.31
0.20 0.22 0.19 0.16 0.15 0.16 0.16 0.13 0.11 0.12 0.12 0.11 0.12 0.13 0.15 0.16 0.16 0.18 0.21 0.25 0.26 0.23 0.20 0.18 0.17 0.17 0.15 0.15 0.15 0.16 0.16 0.17 0.17 0.18 0.17 0.16 0.16 0.15 0.13 0.13 0.17 0.20 0.24 0.25
0.19 0.20 0.17 0.14 0.15 0.17 0.16 0.14 0.13 0.13 0.13 0.13 0.15 0.16 0.18 0.17 0.17 0.18 0.21 0.24 0.22 0.19 0.17 0.15 0.15 0.16 0.15 0.14 0.13 0.13 0.13 0.15 0.15 0.15 0.15 0.14 0.14 0.13 0.12 0.12 0.15 0.15 0.17 0.19
0.21 0.22 0.17 0.15 0.17 0.19 0.18 0.17 0.15 0.13 0.13 0.13 0.13 0.15 0.17 0.18 0.18 0.18 0.17 0.19 0.19 0.18 0.20 0.18 0.15 0.15 0.14 0.13 0.11 0.12 0.12 0.11 0.11 0.10 0.10 0.10 0.11 0.11 0.11 0.12 0.14 0.14 0.14 0.16
0.24 0.21 0.17 0.15 0.17 0.19 0.18 0.16 0.14 0.14 0.14 0.14 0.14 0.15 0.16 0.17 0.18 0.19 0.18 0.16 0.17 0.16 0.17 0.16 0.16 0.14 0.11 0.09 0.10 0.11 0.10 0.11 0.11 0.10 0.08 0.08 0.10 0.12 0.11 0.11 0.12 0.12 0.14 0.14
0.28 0.24 0.19 0.15 0.16 0.20 0.20 0.18 0.15 0.14 0.15 0.17 0.17 0.17 0.18 0.19 0.19 0.17 0.14 0.14 0.14 0.12 0.10 0.11 0.13 0.11 0.08 0.07 0.08 0.09 0.09 0.09 0.09 0.08 0.07 0.08 0.10 0.12 0.11 0.09 0.08 0.09 0.10 0.11
0.35 0.29 0.22 0.21 0.25 0.26 0.25 0.21 0.20 0.19 0.20 0.22 0.20 0.20 0.20 0.21 0.19 0.16 0.15 0.16 0.16 0.14 0.11 0.08 0.09 0.10 0.09 0.08 0.09 0.09 0.09 0.08 0.08 0.08 0.08 0.09 0.10 0.10 0.08 0.07 0.08 0.08 0.09 0.10
0.45 0.40 0.34 0.30 0.28 0.27 0.25 0.25 0.25 0.24 0.26 0.27 0.25 0.23 0.23 0.19 0.16 0.13 0.14 0.16 0.15 0.14 0.11 0.09 0.09 0.10 0.10 0.09 0.11 0.10 0.09 0.08 0.08 0.08 0.09 0.09 0.07 0.05 0.05 0.06 0.08 0.08 0.08 0.08
0.53 0.47 0.43 0.35 0.29 0.26 0.28 0.30 0.27 0.25 0.23 0.26 0.25 0.22 0.19 0.17 0.15 0.13 0.13 0.15 0.14 0.13 0.11 0.09 0.10 0.10 0.09 0.09 0.11 0.11 0.10 0.09 0.09 0.10 0.09 0.07 0.06 0.07 0.06 0.06 0.08 0.09 0.09 0.08